Flag for Netherlands Weather past 2 weeks in Eindhoven, Netherlands

Now
84 °F

Pleasantly warm.


Feels Like: 82 °F
Forecast: 65 / 91 °F
Wind: 8 mph from East

Location: Eindhoven Airport

Current Time: Jun 30, 2015 at 7:43:37 PM

Latest Report: Jun 30, 2015 at 6:55 PM


Visibility: N/A

Pressure: 30.07 "Hg

Humidity: 29%

Dew point: 48 °F

Location of EindhovenLocation

Historic Weather in Eindhoven — Graph

°F

Eindhoven temperature yesterday

Maximum temperature yesterday: 77 °F (at 2:25 PM)
Minimum temperature yesterday: 59 °F (at 3:55 AM)
Average temperature yesterday: 69 °F

Past Weeks' High & Low Weather Summary

 TemperatureHumidityPressure
High84 °F (Jun 30, 3:55 PM)100% (Jun 17, 3:25 AM)30.30 "Hg (Jun 17, 3:25 AM)
Low43 °F (Jun 16, 4:25 AM)29% (Jun 30, 4:25 PM)29.71 "Hg (Jun 22, 4:55 PM)
Average61 °F70%30.08 "Hg
* Reported Jun 15 6:25 PM — Jun 30 6:25 PM, Eindhoven, Weather by CustomWeather, © 2015

Note: Actual official high and low records may vary slightly from our data, if they occured in-between our weather recording intervals... More about our weather records

Advertising

Eindhoven weather history for previous 24 hours

 ConditionsComfort  
Time TempWeatherWind HumidityBarometerVisibility
6:25 PM
Tue, Jun 30
84 °FPleasantly warm.9 mph31%30.07 "HgN/A
5:55 PM84 °FPleasantly warm.8 mph29%30.09 "HgN/A
4:55 PM84 °FPleasantly warm.8 mph31%30.09 "HgN/A
4:25 PM84 °FPassing clouds.7 mph29%30.09 "HgN/A
3:55 PM84 °FPleasantly warm.5 mph31%30.09 "HgN/A
2:55 PM82 °FPleasantly warm.7 mph32%30.12 "HgN/A
2:25 PM81 °FPassing clouds.5 mph37%30.12 "HgN/A
1:55 PM81 °FPleasantly warm.3 mph34%30.12 "HgN/A
1:25 PM81 °FPassing clouds.3 mph34%30.15 "HgN/A
12:55 PM79 °FPleasantly warm.6 mph39%30.15 "HgN/A
12:25 PM77 °FWarm.8 mph42%30.15 "HgN/A
11:55 AM77 °FWarm.7 mph44%30.15 "HgN/A
11:25 AM75 °FPassing clouds.7 mph44%30.15 "HgN/A
10:55 AM75 °FPassing clouds.7 mph47%30.18 "HgN/A
10:25 AM73 °FPassing clouds.6 mph53%30.18 "HgN/A
9:55 AM72 °FMild.3 mph53%30.18 "HgN/A
9:25 AM72 °FMild.2 mph57%30.18 "HgN/A
8:55 AM68 °FMild.3 mph64%30.18 "HgN/A
8:25 AM66 °FMild.3 mph68%30.18 "HgN/A
7:55 AM64 °FMild.3 mph73%30.18 "HgN/A
7:25 AM61 °FPassing clouds.2 mph83%30.18 "HgN/A
6:55 AM54 °FCool.1 mph100%30.18 "HgN/A
6:25 AM52 °FCool.1 mph94%30.18 "HgN/A
5:55 AM50 °FCool.No wind100%30.18 "HgN/A
5:25 AM52 °FCool.No wind94%30.18 "HgN/A
4:55 AM50 °FCool.No wind100%30.18 "HgN/A
4:25 AM52 °FCool.1 mph100%30.18 "HgN/A
3:55 AM52 °FCool.1 mph100%30.18 "HgN/A
3:25 AM54 °FPassing clouds.1 mph94%30.18 "HgN/A
2:55 AM54 °FCool.No wind94%30.18 "HgN/A
2:25 AM54 °FCool.No wind100%30.18 "HgN/A
1:55 AM55 °FCool.No wind94%30.18 "HgN/A
1:25 AM55 °FCool.2 mph94%30.18 "HgN/A
12:55 AM57 °FCool.1 mph94%30.18 "HgN/A
12:25 AM59 °FCool.1 mph82%30.18 "HgN/A
11:55 PM
Mon, Jun 29
59 °FCool.1 mph88%30.21 "HgN/A
11:25 PM61 °FPassing clouds.1 mph83%30.18 "HgN/A
10:55 PM63 °FMild.1 mph77%30.18 "HgN/A
10:25 PM66 °FMild.3 mph68%30.18 "HgN/A
9:55 PM68 °FPassing clouds.3 mph64%30.18 "HgN/A
9:25 PM70 °FScattered clouds.5 mph57%30.18 "HgN/A
8:55 PM72 °FMild.6 mph53%30.18 "HgN/A
8:25 PM73 °FPassing clouds.7 mph47%30.18 "HgN/A
7:55 PM73 °FPartly sunny.8 mph50%30.18 "HgN/A
7:25 PM73 °FPartly sunny.9 mph50%30.15 "HgN/A
Weather by CustomWeather, © 2015

See weather overviewHow to use our weather pages